Location: Cheyres
(46.8153°N, 6.7877°E)
Time: 04:15:21
(UTC+00:00)

Meteor 1-11 Rocket - Pass Details

Date: 11 May 2021
Orbit: 831 x 916 km, 81.2° (Epoch: 18 June)

Event Time Altitude Azimuth Distance (km) Brightness Sun altitude
Rises 20:36:18 0° 353° (N) 3,566 7.9 -14.3°
Reaches altitude 10° 20:38:55 10° 360° (N) 2,618 7.0 -14.6°
Maximum altitude 20:44:38 45° 72° (ENE) 1,229 4.4 -15.3°
Enters shadow 20:47:57 23° 132° (SE) 1,815 4.8 -15.6°
